{"data":{"norad_id":66834,"intl_designator":"2025-280P","name":"STARLINK-35840","alt_names":[],"object_type":"PAYLOAD","status":"ACTIVE","operator":null,"country":"US","launch_date":"2025-12-02","launch_site_code":"AFWTR","launch_vehicle":null,"mission":null,"orbit_class":"UNKNOWN","rcs_meters":null,"size_class":null,"mass_kg":null,"dimensions":null,"purposes":["comms"],"wikipedia_slug":null,"has_3d_model":false,"image_url":null,"decayed_at":null,"tle_current":{"epoch":"2026-09-20T05:58:15.455136Z","epoch_age_seconds":105776,"freshness":"FRESH","line1":"1 66834U 25280P   26263.24878999  .00001423  00000+0  12703-3 0  9994","line2":"2 66834  70.0006 203.7160 0003304 263.5832  96.4950 14.98340741 45227","mean_motion":14.98340741,"eccentricity":0.0003304,"inclination_deg":70.0006,"raan_deg":203.716,"arg_perigee_deg":263.5832,"mean_anomaly_deg":96.495,"bstar":0.00012703,"rev_number":4522,"period_min":96.106310173408,"perigee_km":569.72634272959,"apogee_km":574.31900824315,"semimajor_km":6950.1596754864,"source":"CELESTRAK","updated_at":"2026-09-21T09:00:36.022187Z"}}}